{"data":{"norad_id":59529,"epoch":"2026-05-24T17:46:23.647008Z","epoch_age_seconds":97140,"freshness":"FRESH","line1":"1 59529U 24073U   26144.74055147  .00001249  00000+0  54918-4 0  9992","line2":"2 59529  43.0034 245.2831 0001603 273.6707  86.3962 15.27581684117845","mean_motion":15.27581684,"eccentricity":0.0001603,"inclination_deg":43.0034,"raan_deg":245.2831,"arg_perigee_deg":273.6707,"mean_anomaly_deg":86.3962,"bstar":5.4918e-5,"rev_number":11784,"period_min":94.266644794361,"perigee_km":481.94420621959,"apogee_km":484.14390086535,"semimajor_km":6861.1810535425,"source":"CELESTRAK","updated_at":"2026-05-25T13:38:18.977105Z"}}